Tracking 19224 objects as of 22-Jul-2018
HD Live streaming from Space Station
objects crossing your sky now

FENGYUN 1C DEB

Track FENGYUN 1C DEB now!
10-day predictions


NORAD ID: 30719
Int'l Code: 1999-025ASD
Perigee: 816.5 km
Apogee: 844.0 km
Inclination: 98.9 °
Period: 101.4 minutes
Semi major axis: 7201 km
RCS: 0.0117 m2 (small)
Launch date: May 10, 1999
Source: People's Republic of China (PRC)
Launch site: Taiyaun Space Center, China (TSC)

Note: This is SATELLITE DEBRIS
aabbcc
Your satellite tracking list
Your tracking list is empty




NASA's NSSDC Master Catalog

Two Line Element Set (TLE):
1 30719U 99025ASD 18203.35493667  .00000658  00000-0  32628-3 0  9995
2 30719  98.9325 253.5569 0019099 112.7489 247.5708 14.20654016589399
Source of the keplerian elements: AFSPC